Location: Middle Street
(51.7167°N, 0.0333°E)
Time: 20:16:24
(UTC+00:00)

RESURS DK-1 - Pass Details

Date: 20 January 2021
Orbit: 557 x 560 km, 69.9° (Epoch: 27 February)

Event Time Altitude Azimuth Distance (km) Brightness Sun altitude
Rises 18:39:12 0° 249° (WSW) 2,740 7.3 -19.8°
Reaches altitude 10° 18:41:45 10° 263° (W) 1,848 6.2 -20.2°
Maximum altitude 18:45:06 24° 318° (NW) 1,198 4.4 -20.7°
Enters shadow 18:47:42 14° 5° (N) 1,620 4.6 -21.1°
